EW7144 Weather Reports


time (UTC)temp
F
wind
direction
speed
knots
gust
knots
rain 1hr
in
rain 24hr
in
rain mn
in
humidity
%
barometer
mb
20260509214907 60 287 5.2 13.0 0.00 0.08 0.00 79 1000.2
20260509214407 60 320 6.1 17.4 0.00 0.08 0.00 79 1000.2
20260509213907 59 345 5.2 15.6 0.00 0.08 0.00 79 1000.3
20260509213407 59 304 6.1 13.0 0.00 0.08 0.00 80 1000.3
20260509212907 59 267 4.3 13.9 0.00 0.08 0.00 80 1000.4
20260509212408 59 231 5.2 13.9 0.00 0.08 0.00 80 1000.5
20260509211906 59 242 4.3 13.0 0.00 0.09 0.00 80 1000.5
20260509211407 58 227 5.2 14.8 0.00 0.09 0.00 80 1000.3
20260509210908 58 320 4.3 13.0 0.00 0.09 0.00 80 1000.3
20260509205907 58 296 5.2 15.6 0.00 0.09 0.00 81 1000.2
20260509205409 57 295 5.2 13.9 0.00 0.09 0.00 81 1000.2
20260509203908 57 332 5.2 13.9 0.00 0.10 0.00 82 1000.0
20260509203409 56 265 4.3 11.3 0.00 0.10 0.00 83 1000.0
20260509202907 56 217 5.2 13.9 0.00 0.10 0.00 84 999.9
20260509202408 56 335 6.1 13.0 0.00 0.10 0.00 85 999.9
20260509201907 56 311 4.3 10.4 0.00 0.10 0.00 85 999.9
20260509201409 56 295 3.5 10.4 0.00 0.10 0.00 85 999.9
20260509200906 56 321 5.2 13.0 0.00 0.10 0.00 85 999.8
20260509195409 55 323 4.3 10.4 0.00 0.10 0.00 87 999.7
20260509194907 55 292 5.2 14.8 0.00 0.10 0.00 87 999.6
20260509194408 55 213 2.6 13.9 0.00 0.10 0.00 87 999.7
20260509193907 56 250 4.3 10.4 0.00 0.10 0.00 87 999.6
20260509193408 56 202 4.3 10.4 0.00 0.10 0.00 87 999.4
20260509192407 56 287 5.2 14.8 0.00 0.10 0.00 87 999.4
20260509191907 56 329 3.5 10.4 0.00 0.10 0.00 87 999.4
20260509191408 56 269 2.6 10.4 0.00 0.10 0.00 87 999.3
20260509190906 56 312 4.3 10.4 0.00 0.10 0.00 87 999.3
20260509190408 56 279 1.7 7.8 0.00 0.10 0.00 86 999.4
20260509185906 56 306 3.5 14.8 0.00 0.10 0.00 86 999.4
20260509185407 56 266 5.2 13.0 0.00 0.10 0.00 86 999.3
20260509184907 56 255 5.2 17.4 0.00 0.10 0.00 85 999.3
20260509183907 56 222 7.0 17.4 0.00 0.10 0.00 85 999.1
20260509183408 56 265 6.1 13.9 0.00 0.10 0.00 85 999.1
20260509182907 56 244 6.1 17.4 0.00 0.10 0.00 85 999.1
20260509182409 56 285 4.3 11.3 0.00 0.10 0.00 85 999.2
20260509181906 56 241 5.2 13.0 0.00 0.10 0.00 85 999.3
20260509181407 56 281 4.3 11.3 0.00 0.10 0.00 84 999.2
20260509180907 56 209 4.3 13.9 0.00 0.10 0.00 84 999.2
20260509180409 56 286 7.0 17.4 0.00 0.10 0.00 85 999.2
20260509175907 56 327 4.3 14.8 0.00 0.10 0.00 85 999.2
20260509175407 56 269 5.2 11.3 0.00 0.10 0.00 85 999.2
20260509174906 56 224 5.2 14.8 0.00 0.10 0.00 85 999.1
20260509174409 56 312 5.2 17.4 0.00 0.10 0.00 85 999.1
20260509173906 56 259 4.3 12.2 0.00 0.10 0.00 85 999.0
20260509173407 56 232 6.1 15.6 0.00 0.10 0.00 86 999.1
20260509172907 55 280 5.2 17.4 0.00 0.10 0.00 86 999.2
20260509172408 55 269 5.2 15.6 0.00 0.10 0.00 86 999.2
20260509171408 55 226 5.2 13.0 0.00 0.10 0.00 86 999.2
20260509170907 56 312 6.1 14.8 0.00 0.10 0.00 85 999.1
20260509170408 56 228 6.1 17.4 0.00 0.10 0.00 85 999.2
20260509165907 56 256 6.1 20.0 0.00 0.10 0.00 84 999.2
20260509165409 56 236 6.1 19.1 0.00 0.10 0.00 84 999.3
20260509164907 56 291 6.1 14.8 0.00 0.10 0.00 83 999.3
20260509164407 56 302 4.3 12.2 0.00 0.10 0.00 83 999.3
20260509163906 56 243 7.0 17.4 0.00 0.10 0.00 83 999.2
20260509163408 57 238 6.1 20.9 0.00 0.10 0.00 83 999.1
20260509162907 57 274 9.6 17.4 0.00 0.10 0.00 83 999.1
20260509162408 57 278 7.8 13.0 0.00 0.10 0.00 83 999.2
20260509161906 56 236 7.0 19.1 0.00 0.10 0.00 83 999.0
20260509161415 56 299 7.8 17.4 0.00 0.10 0.00 84 999.1
20260509160906 56 236 6.1 14.8 0.00 0.10 0.00 84 999.0
20260509155906 56 204 5.2 11.3 0.00 0.10 0.00 84 999.2
20260509155408 56 253 5.2 14.8 0.00 0.10 0.00 84 999.2
20260509154907 55 214 6.1 17.4 0.00 0.10 0.00 84 999.2
20260509153408 55 223 6.1 14.8 0.00 0.10 0.00 84 999.2
20260509152907 55 301 5.2 13.0 0.00 0.11 0.00 84 999.4
20260509151906 55 209 2.6 8.7 0.00 0.11 0.00 83 999.7
20260509151408 55 309 3.5 10.4 0.00 0.11 0.00 83 999.7
20260509150907 55 285 6.1 17.4 0.00 0.11 0.00 83 999.7
20260509150408 55 223 7.0 15.6 0.00 0.11 0.00 82 999.6
20260509145907 55 241 5.2 21.7 0.00 0.11 0.00 82 999.6
20260509145408 54 225 7.0 17.4 0.00 0.11 0.00 83 999.6
20260509144409 55 175 4.3 12.2 0.00 0.11 0.00 83 999.7
20260509143907 55 289 5.2 12.2 0.00 0.11 0.00 83 999.7
20260509142906 55 323 4.3 10.4 0.00 0.11 0.00 84 999.7
20260509142409 55 287 4.3 10.4 0.00 0.11 0.00 84 999.7
20260509141907 55 349 4.3 14.8 0.00 0.11 0.00 84 999.8
20260509141408 55 338 4.3 12.2 0.00 0.11 0.00 84 999.8
20260509140408 55 346 5.2 11.3 0.00 0.11 0.00 84 999.8
20260509135907 54 212 4.3 10.4 0.00 0.11 0.00 84 1000.0
20260509135407 54 223 4.3 11.3 0.00 0.11 0.00 83 1000.0
20260509134408 54 220 4.3 10.4 0.00 0.11 0.00 83 1000.0
20260509133907 54 220 4.3 11.3 0.00 0.11 0.00 83 1000.0
20260509133408 54 229 4.3 13.0 0.00 0.11 0.00 83 999.9
20260509132907 54 303 4.3 12.2 0.00 0.11 0.00 84 1000.0
20260509132409 54 269 4.3 10.4 0.00 0.11 0.00 83 1000.2
20260509131906 55 316 2.6 10.4 0.00 0.11 0.00 83 1000.1
20260509131408 55 255 4.3 11.3 0.00 0.11 0.00 83 1000.2
20260509130907 55 313 4.3 18.2 0.00 0.11 0.00 84 1000.2
20260509130409 55 312 4.3 11.3 0.00 0.11 0.00 84 1000.2
20260509125907 55 286 2.6 11.3 0.06 0.11 0.00 84 1000.2
20260509125408 54 206 6.1 13.0 0.06 0.11 0.00 84 1000.2
20260509124907 55 229 2.6 10.4 0.06 0.11 0.00 84 1000.1
20260509124409 55 268 2.6 14.8 0.06 0.11 0.00 84 1000.1
20260509123907 54 281 6.1 14.8 0.06 0.11 0.00 84 1000.0
20260509123408 54 283 5.2 12.2 0.06 0.11 0.00 84 1000.1
20260509122906 54 256 2.6 10.4 0.06 0.11 0.00 85 1000.3
20260509122409 54 228 5.2 10.4 0.06 0.11 0.00 85 1000.4
20260509121907 54 221 4.3 13.0 0.06 0.11 0.00 85 1000.4
20260509121408 54 270 4.3 13.9 0.06 0.11 0.00 85 1000.4
20260509120907 54 206 6.1 13.9 0.06 0.11 0.00 85 1000.5
20260509120408 54 213 5.2 12.2 0.06 0.11 0.00 84 1000.5
20260509115907 54 221 6.1 15.6 0.00 1.09 0.06 84 1000.5
20260509114907 54 190 6.1 18.2 0.00 1.09 0.06 83 1000.4
20260509114409 54 208 5.2 15.6 0.00 1.09 0.06 83 1000.5
20260509113907 54 222 6.1 10.4 0.00 1.09 0.06 83 1000.4
20260509113408 54 233 4.3 15.6 0.00 1.09 0.06 83 1000.5
20260509112907 54 214 6.1 13.0 0.00 1.09 0.06 82 1000.4
20260509112407 54 216 5.2 13.0 0.00 1.09 0.06 82 1000.4
20260509111907 54 217 5.2 11.3 0.00 1.09 0.06 82 1000.5
20260509111408 55 205 5.2 11.3 0.00 1.09 0.06 82 1000.4
20260509110407 55 203 7.0 17.4 0.00 1.09 0.06 81 1000.4
20260509105907 54 205 7.8 14.8 0.00 1.09 0.06 81 1000.4
20260509105408 54 210 7.0 13.9 0.00 1.09 0.06 81 1000.3
20260509104907 54 224 7.0 15.6 0.00 1.09 0.06 81 1000.3
20260509103907 54 215 5.2 14.8 0.00 1.09 0.06 82 1000.4
20260509102907 54 282 3.5 10.4 0.00 1.09 0.06 83 1000.6
20260509102407 54 234 4.3 12.2 0.00 1.09 0.06 83 1000.6
20260509101907 54 217 4.3 12.2 0.00 1.09 0.06 84 1000.7
20260509101408 54 239 4.3 8.7 0.00 1.09 0.06 85 1000.7
20260509100906 54 216 4.3 8.7 0.00 1.09 0.06 85 1000.7
20260509100407 54 312 5.2 11.3 0.00 1.09 0.06 86 1000.8
20260509095907 53 229 2.6 8.7 0.00 1.09 0.06 86 1000.8
20260509095407 53 253 3.5 10.4 0.00 1.09 0.06 86 1000.8
20260509094907 53 281 2.6 8.7 0.00 1.09 0.06 87 1000.7
20260509094407 53 341 2.6 10.4 0.00 1.09 0.06 87 1000.6
20260509093908 53 263 4.3 13.0 0.00 1.09 0.06 87 1000.7
20260509093408 53 232 3.5 8.7 0.00 1.09 0.06 87 1000.7
20260509092908 53 291 2.6 7.0 0.00 1.09 0.06 87 1000.7
20260509092408 53 284 3.5 7.8 0.00 1.09 0.06 87 1000.7
20260509091906 53 256 3.5 10.4 0.00 1.09 0.06 87 1000.6
20260509091408 53 262 2.6 6.1 0.00 1.09 0.06 87 1000.7
20260509090907 53 270 2.6 7.8 0.00 1.09 0.06 87 1000.7
20260509090408 54 294 1.7 5.2 0.00 1.09 0.06 87 1000.7
20260509085908 54 298 1.7 7.0 0.00 1.09 0.06 87 1000.7
20260509085408 54 252 1.7 8.7 0.00 1.09 0.06 87 1000.7
20260509084907 54 203 2.6 12.2 0.00 1.09 0.06 86 1000.7
20260509084406 55 218 4.3 10.4 0.00 1.09 0.06 86 1000.7
20260509083906 55 204 6.1 13.0 0.00 1.09 0.06 86 1000.6
20260509082907 54 315 4.3 11.3 0.00 1.09 0.06 84 1000.4
20260509082406 55 219 4.3 13.9 0.00 1.09 0.06 84 1000.3
20260509081907 55 244 3.5 10.4 0.00 1.09 0.06 84 1000.3
20260509080907 54 275 2.6 7.8 0.00 1.09 0.06 84 1000.4
20260509080406 54 228 5.2 15.6 0.00 1.09 0.06 83 1000.5
20260509075406 54 252 4.3 10.4 0.00 1.09 0.06 83 1000.5
20260509074407 55 324 3.5 10.4 0.00 1.09 0.06 84 1000.4
20260509073907 55 227 4.3 11.3 0.00 1.09 0.06 84 1000.4
20260509073407 55 241 4.3 10.4 0.00 1.09 0.06 84 1000.3
20260509072907 55 296 5.2 10.4 0.00 1.09 0.06 84 1000.3
20260509072407 56 236 6.1 15.6 0.00 1.09 0.06 83 1000.2
20260509071406 56 316 7.0 13.0 0.00 1.09 0.06 82 1000.0
20260509070906 56 248 4.3 17.4 0.00 1.09 0.06 81 999.9
20260509065907 56 223 5.2 15.6 0.00 1.09 0.06 81 1000.0
20260509065406 56 261 5.2 13.0 0.00 1.09 0.06 81 1000.1
20260509064907 56 233 5.2 13.9 0.00 1.09 0.06 80 1000.0
20260509064406 56 288 5.2 11.3 0.00 1.09 0.06 79 1000.1
20260509063907 56 183 4.3 15.6 0.00 1.09 0.06 78 1000.2
20260509063407 56 337 4.3 11.3 0.00 1.09 0.06 78 1000.2
20260509062907 55 299 4.3 10.4 0.00 1.09 0.06 79 1000.1
20260509062407 55 215 4.3 15.6 0.00 1.09 0.06 79 1000.1
20260509061906 55 233 5.2 10.4 0.00 1.09 0.06 79 1000.1
20260509060907 55 307 4.3 11.3 0.00 1.09 0.06 78 999.9
20260509060406 55 212 2.6 11.3 0.00 1.09 0.06 79 999.9
20260509055906 55 219 2.6 10.4 0.00 1.09 0.06 78 999.7
20260509054907 55 0 1.7 10.4 0.00 1.09 0.06 79 999.6
20260509054406 56 230 5.2 14.8 0.00 1.10 0.06 78 999.5
20260509053407 56 316 4.3 10.4 0.00 1.13 0.06 78 999.5
20260509052906 56 257 3.5 14.8 0.00 1.13 0.06 78 999.6
20260509052407 56 234 4.3 14.8 0.01 1.14 0.06 78 999.5
20260509051907 56 214 5.2 10.4 0.01 1.15 0.06 79 999.6
20260509051407 56 217 4.3 10.4 0.01 1.17 0.06 79 999.5
20260509050906 56 288 4.3 10.4 0.01 1.19 0.06 79 999.6
20260509045907 56 204 5.2 12.2 0.01 1.23 0.06 78 999.5
20260509044906 57 222 6.1 13.0 0.01 1.25 0.06 77 999.5
20260509044406 57 231 6.1 13.0 0.01 1.26 0.06 76 999.4
20260509043907 57 223 2.6 13.0 0.01 1.27 0.06 77 999.4
20260509043406 57 205 7.0 15.6 0.01 1.27 0.06 76 999.3
20260509042907 57 207 5.2 17.4 0.01 1.28 0.06 76 999.4
20260509042407 57 252 6.1 17.4 0.00 1.28 0.05 76 999.4
20260509041907 57 210 5.2 14.8 0.00 1.28 0.05 76 999.4
20260509041407 57 232 5.2 13.0 0.00 1.28 0.05 76 999.4
20260509040906 58 226 4.3 13.0 0.00 1.28 0.05 76 999.5
20260509040408 58 230 6.1 18.2 0.00 1.28 0.05 76 999.4
20260509035409 58 247 5.2 15.6 0.00 1.28 0.05 77 999.3
20260509034407 58 322 7.8 15.6 0.00 1.29 0.05 76 999.4
20260509033908 58 199 8.7 19.1 0.00 1.29 0.05 76 999.4
20260509032907 58 233 6.1 18.2 0.00 1.31 0.05 75 999.3
20260509032406 58 206 8.7 20.0 0.00 1.31 0.05 75 999.2
20260509031407 58 216 10.4 21.7 0.00 1.31 0.05 76 999.2
20260509030906 58 219 7.8 21.7 0.00 1.31 0.05 76 999.2
20260509030406 58 183 6.1 18.2 0.00 1.31 0.05 76 999.2
20260509025406 59 220 7.8 18.2 0.00 1.32 0.05 76 999.3
20260509024906 59 198 9.6 20.9 0.00 1.33 0.05 75 999.5
20260509024407 60 224 8.7 21.7 0.00 1.35 0.05 75 999.3
20260509023907 60 217 7.8 19.1 0.00 1.37 0.05 75 999.3
20260509022906 60 230 7.0 17.4 0.00 1.39 0.05 76 999.2
20260509022406 60 303 6.1 15.6 0.00 1.40 0.05 77 999.2
20260509021406 59 328 8.7 25.2 0.00 1.42 0.05 79 999.2
20260509020906 59 329 7.8 20.0 0.00 1.42 0.05 78 999.1
20260509020407 59 205 8.7 19.1 0.00 1.42 0.05 77 999.0
20260509015407 60 231 5.2 13.9 0.00 1.43 0.05 76 999.0
20260509014906 61 338 6.1 17.4 0.00 1.43 0.05 75 998.9
20260509014406 61 236 7.8 19.1 0.00 1.43 0.05 75 998.8
20260509013906 61 245 6.1 18.2 0.00 1.44 0.05 77 998.9
20260509013407 61 262 8.7 20.0 0.00 1.44 0.05 77 998.8
20260509012906 61 251 7.0 18.2 0.00 1.44 0.05 77 998.7
20260509012406 61 228 7.8 18.2 0.00 1.44 0.05 76 998.7
20260509011906 61 244 7.8 21.7 0.00 1.44 0.05 76 998.8
20260509011406 61 197 8.7 20.9 0.00 1.44 0.05 76 998.9
20260509010906 60 335 6.1 17.4 0.00 1.44 0.05 78 999.0
20260509005906 60 254 6.1 15.6 0.00 1.44 0.05 79 999.1
20260509005407 60 221 8.7 17.4 0.00 1.45 0.05 79 999.0
20260509004907 60 203 8.7 18.2 0.00 1.45 0.05 79 999.0
20260509004407 60 215 7.8 21.7 0.00 1.45 0.05 79 999.0
20260509003908 60 201 7.8 17.4 0.00 1.45 0.05 80 999.0
20260509002906 60 209 8.7 17.4 0.00 1.45 0.05 81 999.2
20260509001408 60 195 8.7 17.4 0.00 1.45 0.05 81 999.2
20260509000407 60 223 7.8 19.1 0.00 1.45 0.05 82 999.2
20260508235906 60 218 8.7 20.0 0.00 1.45 0.05 83 999.1
20260508235406 60 327 8.7 18.2 0.00 1.45 0.05 83 999.1
20260508234907 60 225 8.7 20.0 0.00 1.45 0.05 84 999.1
20260508234407 60 213 9.6 20.0 0.00 1.45 0.05 85 999.1
20260508233907 60 279 7.0 20.9 0.00 1.45 0.05 87 999.1
20260508233408 59 211 8.7 20.9 0.01 1.45 0.05 87 999.0
20260508232907 60 346 7.8 18.2 0.01 1.45 0.05 88 998.9
20260508232407 60 276 5.2 17.4 0.01 1.45 0.05 88 999.0
20260508231907 59 296 7.8 19.1 0.01 1.45 0.05 89 999.0
20260508231408 59 248 6.1 13.0 0.01 1.45 0.05 89 999.1
20260508230906 59 221 5.2 14.8 0.01 1.45 0.05 89 999.0
20260508230407 59 258 6.1 15.6 0.01 1.45 0.05 89 999.0
20260508225409 58 320 5.2 13.0 0.02 1.45 0.05 89 999.0
20260508224907 59 308 3.5 12.2 0.02 1.45 0.05 89 999.0
20260508224407 59 264 6.1 11.3 0.02 1.46 0.05 89 998.9
20260508223907 59 209 7.0 19.1 0.02 1.46 0.05 88 998.8
20260508223408 60 243 7.8 20.0 0.01 1.45 0.04 89 998.5
20260508222408 59 323 7.8 17.4 0.01 1.45 0.04 89 998.5
20260508221907 59 335 7.8 19.1 0.02 1.45 0.04 89 998.4
20260508221407 59 341 6.1 18.2 0.02 1.45 0.04 89 998.4
20260508220907 58 273 5.2 12.2 0.02 1.45 0.04 89 998.4
20260508220407 58 357 4.3 10.4 0.02 1.45 0.04 89 998.3
20260508215907 58 252 5.2 13.0 0.02 1.45 0.04 89 998.2
20260508215407 58 249 4.3 12.2 0.02 1.44 0.03 90 998.3